Home > Weather > Tashkent > Past weeks

Flag for Uzbekistan Past Weather in Tashkent, Uzbekistan — Yesterday and Last 2 Weeks

Now
100 °F

Passing clouds.


Feels Like: 97 °F
Forecast: 74 / 92 °F
Wind: 8 mph from West

Location: Tashkent

Current Time: Jul 27, 2016 at 4:44:05 PM

Latest Report: Jul 27, 2016 at 4:00 PM


Visibility: N/A

Pressure: 29.62 "Hg

Humidity: 18%

Dew Point: 50 °F

Location of TashkentLocation

Past Weather in Tashkent — Graph

°F

Tashkent Temperature Yesterday

Maximum temperature yesterday: 106 °F (at 2:00 PM)
Minimum temperature yesterday: 77 °F (at 4:30 AM)
Average temperature yesterday: 93 °F

High & Low Weather Summary for the Past Weeks

 TemperatureHumidityPressure
High106 °F (Jul 13, 3:30 PM)69% (Jul 15, 12:30 AM)29.92 "Hg (Jul 15, 12:30 AM)
Low68 °F (Jul 15, 3:00 AM)11% (Jul 23, 4:00 PM)29.56 "Hg (Jul 18, 4:00 AM)
Average87 °F33%29.72 "Hg
* Reported Jul 12 3:00 PM — Jul 27 3:00 PM, Tashkent, Weather by CustomWeather, © 2016

Note: Actual official high and low records may vary slightly from our data, if they occured in-between our weather recording intervals... More about our weather records

Advertising

Tashkent Weather History for the Previous 24 Hours

Scroll right to see more
 ConditionsComfort  
Time TempWeatherWind HumidityBarometerVisibility
3:00 PM
Wed, Jul 27
102 °FSunny.6 mph17%29.62 "Hg10 mi
2:30 PM102 °FPassing clouds.9 mph17%29.62 "HgN/A
2:00 PM100 °FPassing clouds.5 mph18%29.62 "HgN/A
1:30 PM100 °FPassing clouds.7 mph20%29.62 "HgN/A
1:00 PM100 °FPassing clouds.15 mph18%29.65 "HgN/A
12:30 PM99 °FSunny.17 mph21%29.65 "Hg10 mi
12:00 PM97 °FSunny.17 mph22%29.68 "Hg10 mi
11:30 AM97 °FPassing clouds.17 mph20%29.68 "HgN/A
11:00 AM99 °FPassing clouds.18 mph19%29.68 "HgN/A
10:30 AM95 °FSunny.20 mph22%29.68 "Hg10 mi
10:00 AM95 °FSunny.17 mph25%29.68 "Hg10 mi
9:30 AM93 °FPassing clouds.15 mph26%29.68 "HgN/A
9:00 AM91 °FPassing clouds.10 mph28%29.68 "HgN/A
8:30 AM90 °FPassing clouds.14 mph29%29.71 "HgN/A
8:00 AM88 °FSunny.16 mph31%29.68 "Hg10 mi
7:30 AM86 °FPassing clouds.14 mph35%29.68 "HgN/A
7:00 AM84 °FSunny.13 mph35%29.68 "Hg10 mi
6:30 AM84 °FSunny.13 mph35%29.68 "Hg10 mi
6:00 AM82 °FSunny.12 mph37%29.68 "Hg10 mi
5:30 AM81 °FSunny.8 mph42%29.68 "Hg10 mi
5:00 AM82 °FPassing clouds.7 mph40%29.68 "HgN/A
4:30 AM81 °FPassing clouds.5 mph45%29.68 "HgN/A
4:00 AM81 °FClear.9 mph42%29.65 "Hg10 mi
3:30 AM81 °FClear.7 mph45%29.65 "Hg10 mi
3:00 AM79 °FPassing clouds.6 mph48%29.65 "HgN/A
2:30 AM79 °FClear.6 mph48%29.65 "Hg10 mi
2:00 AM79 °FClear.6 mph51%29.68 "Hg10 mi
1:30 AM81 °FPassing clouds.5 mph42%29.68 "HgN/A
1:00 AM86 °FClear.5 mph33%29.68 "Hg10 mi
12:30 AM84 °FPassing clouds.6 mph35%29.68 "HgN/A
12:00 AM86 °FClear.7 mph33%29.68 "Hg10 mi
11:30 PM
Tue, Jul 26
90 °FClear.7 mph29%29.68 "Hg10 mi
11:00 PM90 °FClear.7 mph29%29.68 "Hg10 mi
10:30 PM90 °FClear.9 mph29%29.68 "Hg10 mi
10:00 PM90 °FClear.7 mph27%29.71 "Hg10 mi
9:30 PM91 °FClear.10 mph26%29.71 "Hg10 mi
9:00 PM93 °FClear.13 mph24%29.71 "Hg10 mi
8:30 PM93 °FClear.8 mph26%29.68 "Hg10 mi
8:00 PM95 °FPassing clouds.3 mph25%29.68 "HgN/A
7:30 PM97 °FSunny.7 mph23%29.68 "Hg10 mi
7:00 PM99 °FPassing clouds.12 mph22%29.68 "HgN/A
6:30 PM99 °FPassing clouds.12 mph22%29.68 "HgN/A
6:00 PM100 °FPassing clouds.12 mph21%29.68 "HgN/A
5:30 PM102 °FSunny.14 mph18%29.68 "Hg10 mi
5:00 PM104 °FPassing clouds.15 mph16%29.68 "HgN/A
4:30 PM104 °FSunny.17 mph16%29.68 "Hg10 mi
4:00 PM104 °FPassing clouds.20 mph16%29.68 "HgN/A
Weather by CustomWeather, © 2016

See weather overviewHow to use our weather pages